RS26S (KAI-1) (53378 NORAD) Tracking and Keplerian Element Data

This shows tracking and keplerian element data for the satellite.

Feedback or suggestion? Click here.




ElementValue
Catalog53378
NameRS26S (KAI-1)
Epoch Orbit744
Epoch Day270.15072712
Epoch Year2022
RAAN171.2678
Inclination97.4319
Eccentricity0.0002569
Argument of Perigee46.7927
Mean Anonmoly92.4381
Mean Motion15.25233681
Decay Rate7.115E-05
L11 53378U 22096J 22270.15072712 .00007115 00000+0 28598-3 0 9991
L22 53378 97.4319 171.2678 0002569 46.7927 92.4381 15.25233681 7448

Live tracking and technical data element details for RS26S (KAI-1) (NORAD 53378). RS26S (KAI-1) can be tracked NOW for your location showing map with azimuth and elevation plus other details from your city location.

Track the satellite on the map from your city or location and see movement details for azimuth, elevation, latitude, longitude, range, height, and movement on the map or in text.







IsCatalogInMostPopularTable: catalog: 53378, numindb: 2
Update: records affected: 1



GetName: 53378 RS26S (KAI-1)

Hit Count: updated at: Wed, 28 Sep 2022 23:35:10 GMT